Location: Lake of the Woods (North-East)
(49.6672°N, 94.8656°W)
Time: 07:15:32
(UTC-05:00)

ISS - All Passes

Search period start: 26 September 2016 00:00
Search period end: 06 October 2016 00:00
Orbit: 401 x 409 km, 51.6° (Epoch: 26 September)

Date Brightness Start Highest point End Pass type
(mag) Time Alt. Az. Time Alt. Az. Time Alt. Az.
26 Sep - 01:29:15 10° WNW 01:32:30 60° N 01:35:46 10° E night (unlit)
26 Sep - 03:05:48 10° WNW 03:09:04 64° SSW 03:12:20 10° ESE night (unlit)
26 Sep - 04:43:08 10° WSW 04:45:05 15° SW 04:47:01 10° S night (unlit)
26 Sep - 21:25:26 10° S 21:27:41 17° SE 21:29:57 10° E night (unlit)
26 Sep - 23:00:30 10° WSW 23:03:46 74° SSE 23:07:03 10° ENE night (unlit)
27 Sep - 00:37:07 10° W 00:40:22 58° N 00:43:37 10° E night (unlit)
27 Sep - 02:13:42 10° WNW 02:17:00 89° SSW 02:20:18 10° ESE night (unlit)
27 Sep - 03:50:31 10° W 03:53:13 23° SW 03:55:55 10° SSE night (unlit)
27 Sep - 20:35:07 10° SSE 20:35:52 11° SE 20:36:37 10° ESE visible
27 Sep - 22:08:34 10° SW 22:11:44 49° SSE 22:14:55 10° ENE night (unlit)
27 Sep - 23:44:58 10° W 23:48:13 63° N 23:51:29 10° ENE night (unlit)
28 Sep - 01:21:36 10° WNW 01:24:54 72° NNE 01:28:11 10° E night (unlit)
28 Sep - 02:58:13 10° W 03:01:16 36° SSW 03:04:20 10° SE night (unlit)
28 Sep - 21:16:47 10° SSW 21:19:44 32° SSE 21:22:42 10° E visible
28 Sep - 22:52:48 10° W 22:56:04 76° NNW 22:59:21 10° ENE night (unlit)
29 Sep - 00:29:29 10° WNW 00:32:45 62° N 00:36:00 10° E night (unlit)
29 Sep - 02:06:02 10° WNW 02:09:16 55° SSW 02:12:29 10° SE night (unlit)
29 Sep - 03:43:46 10° WSW 03:45:12 12° SW 03:46:37 10° SSW night (unlit)
29 Sep - 20:25:18 10° SSW 20:27:48 21° SE 20:30:19 10° E visible
29 Sep - 22:00:40 10° WSW 22:03:56 83° SSE 22:07:14 10° ENE visible
29 Sep - 23:37:19 10° W 23:40:34 58° N 23:43:49 10° E night (unlit)
30 Sep - 01:13:54 10° WNW 01:17:11 80° SSW 01:20:28 10° ESE night (unlit)
30 Sep - 02:50:50 10° W 02:53:19 20° SW 02:55:48 10° S night (unlit)
30 Sep - 19:34:21 10° SSE 19:35:55 13° SE 19:37:28 10° ESE visible
30 Sep - 21:08:38 10° SW 21:11:51 58° SSE 21:15:05 10° ENE visible
30 Sep - 22:45:08 10° W 22:48:22 61° N 22:51:38 10° ENE visible
01 Oct - 00:21:46 10° WNW 00:25:03 78° NNE 00:28:21 10° ESE night (unlit)
01 Oct - 01:58:25 10° W 02:01:22 31° SSW 02:04:18 10° SSE night (unlit)
01 Oct - 20:16:45 10° SW 20:19:48 38° SSE 20:22:52 10° E visible
01 Oct - 21:52:56 10° W 21:56:11 70° N 21:59:28 10° ENE visible
01 Oct - 23:29:37 10° WNW 23:32:52 64° N 23:36:08 10° E night (unlit)
02 Oct - 01:06:09 10° WNW 01:09:20 47° SSW 01:12:30 10° SE night (unlit)
02 Oct - 02:44:55 10° SW 02:45:11 10° SW 02:45:26 10° SW night (unlit)
02 Oct - 19:25:06 10° SSW 19:27:48 24° SE 19:30:31 10° E visible
02 Oct - 21:00:45 10° WSW 21:04:00 88° NW 21:07:18 10° ENE visible
02 Oct - 22:37:25 10° WNW 22:40:40 59° N 22:43:54 10° E visible
03 Oct - 00:13:58 10° WNW 00:17:14 71° SSW 00:20:31 10° ESE night (unlit)
03 Oct - 01:51:07 10° W 01:53:18 17° SW 01:55:28 10° S night (unlit)
03 Oct - 18:33:50 10° S 18:35:51 15° SE 18:37:52 10° E daylight
03 Oct - 20:08:38 10° WSW 20:11:52 67° SSE 20:15:07 10° ENE visible
03 Oct - 21:45:12 10° W 21:48:26 59° N 21:51:41 10° ENE visible
03 Oct - 23:21:48 10° WNW 23:25:05 85° NNE 23:28:23 10° ESE night (unlit)
04 Oct - 00:58:32 10° W 01:01:20 26° SW 01:04:08 10° SSE night (unlit)
04 Oct - 19:16:38 10° SW 19:19:46 44° SSE 19:22:54 10° ENE visible
04 Oct - 20:52:57 10° W 20:56:12 66° N 20:59:28 10° ENE visible
04 Oct - 22:29:37 10° WNW 22:32:53 68° N 22:36:08 10° E visible
05 Oct - 00:06:11 10° W 00:09:17 40° SSW 00:12:24 10° SE night (unlit)
05 Oct - 18:24:51 10° SSW 18:27:42 28° SE 18:30:34 10° E daylight
05 Oct - 20:00:42 10° WSW 20:03:58 81° NNW 20:07:16 10° ENE visible
05 Oct - 21:37:24 10° WNW 21:40:38 60° N 21:43:53 10° E visible
05 Oct - 23:13:56 10° WNW 23:17:11 62° SSW 23:20:25 10° ESE night (unlit)
